GNOMES-1 (46266 NORAD) Tracking and Keplerian Element Data

This shows tracking and keplerian element data for the satellite.

Feedback or suggestion? Click here.




ElementValue
Catalog46266
NameGNOMES-1
Epoch Orbit348
Epoch Day267.48589438
Epoch Year2020
RAAN91.1839
Inclination97.8858
Eccentricity0.0006693
Argument of Perigee73.3661
Mean Anonmoly286.829
Mean Motion14.87887743
Decay Rate1.23E-06
L11 46266U 20059B 20267.48589438 .00000123 00000-0 19494-4 0 9993
L22 46266 97.8858 91.1839 0006693 73.3661 286.8290 14.87887743 3489

Live tracking and technical data element details for GNOMES-1 (NORAD 46266). GNOMES-1 can be tracked NOW for your location showing map with azimuth and elevation plus other details from your city location.

Track the satellite on the map from your city or location and see movement details for azimuth, elevation, latitude, longitude, range, height, and movement on the map or in text.







IsCatalogInMostPopularTable: catalog: 46266, numindb: 6
Update: records affected: 1



GetName: 46266 GNOMES-1

Hit Count: updated at: Thu, 24 Sep 2020 17:50:21 GMT